Zurück zum Katalog

STARLINK-34249

AktivKommunikationVLEO
NORAD 65376·PAYLOAD·🇺🇸 United States

Gestartet Aug 28, 2025 von Cape Canaveral Space Force Station

Loading…

Nächste Überflüge (nächste 24 Stunden)

TLE

AktuellSource: CelesTrak SupGP

Epoche: Sep 15, 2026, 03:07 UTC

1 65376C 25190AB  26258.13034722  .00069728  00000+0  20599-2 0  2585
2 65376  53.1597   4.5128 0001214  91.8854 205.4777 15.34358544    17

Verfolge STARLINK-34249 in Echtzeit mit AllMySat

Download on the App Store